GW1452 Weather Reports


time (UTC)temp
F
wind
direction
speed
knots
gust
knots
rain 1hr
in
rain 24hr
in
rain mn
in
humidity
%
barometer
mb
20260506113057 56 72 0.0 6.1 0.00 0.00 0.00 77 1011.8
20260506111554 57 40 0.0 3.5 0.00 0.00 0.00 76 1011.9
20260506104600 57 0 0.0 2.6 0.00 0.00 0.00 76 1011.7
20260506103057 57 48 0.9 6.1 0.00 0.00 0.00 75 1011.1
20260506101602 57 42 0.9 5.2 0.00 0.00 0.00 75 1011.6
20260506100053 58 0 1.7 5.2 0.00 0.00 0.00 74 1011.2
20260506094615 58 52 0.9 5.2 0.00 0.00 0.00 74 1011.0
20260506093054 59 0 0.0 3.5 0.00 0.00 0.00 73 1011.0
20260506091557 60 62 0.0 2.6 0.00 0.00 0.00 72 1010.4
20260506090055 60 61 0.0 1.7 0.00 0.00 0.00 72 1010.4
20260506084552 61 0 0.0 3.5 0.00 0.00 0.00 72 1010.6
20260506083059 62 61 0.0 1.7 0.00 0.00 0.00 71 1010.6
20260506081555 62 0 0.0 3.5 0.00 0.00 0.00 71 1010.6
20260506073053 65 53 0.9 3.5 0.00 0.00 0.00 69 1010.3
20260506071553 65 59 1.7 3.5 0.00 0.00 0.00 68 1010.5
20260506061558 68 53 1.7 5.2 0.00 0.00 0.00 63 1009.6
20260506044553 73 0 0.0 1.7 0.00 0.00 0.00 42 1009.2
20260506043049 74 55 0.9 4.3 0.00 0.00 0.00 43 1009.2
20260506041551 75 0 0.0 0.0 0.00 0.00 0.00 39 1008.9
20260506040059 76 0 0.0 0.0 0.00 0.00 0.00 37 1008.9
20260506034606 77 0 0.0 0.0 0.00 0.00 0.00 35 1008.6
20260506033049 78 0 0.0 0.9 0.00 0.00 0.00 32 1008.8
20260506031601 79 0 0.0 1.7 0.00 0.00 0.00 30 1008.7
20260506030054 80 271 0.0 1.7 0.00 0.00 0.00 28 1008.4
20260506024554 81 0 0.0 3.5 0.00 0.00 0.00 27 1008.3
20260506023054 81 278 0.0 1.7 0.00 0.00 0.00 27 1008.1
20260506021556 82 0 0.0 2.6 0.00 0.00 0.00 25 1008.0
20260506020055 83 285 0.0 3.5 0.00 0.00 0.00 24 1007.7
20260506014553 83 0 0.0 3.5 0.00 0.00 0.00 24 1007.7
20260506013055 85 288 0.0 3.5 0.00 0.00 0.00 24 1007.5
20260506011558 86 297 0.9 7.0 0.00 0.00 0.00 24 1007.2
20260506010057 87 286 1.7 7.0 0.00 0.00 0.00 24 1007.1
20260506004558 87 291 0.9 2.6 0.00 0.00 0.00 27 1006.9
20260506003049 88 267 0.0 3.5 0.00 0.00 0.00 26 1006.5
20260506001555 88 0 0.0 2.6 0.00 0.00 0.00 25 1006.4
20260506000103 88 242 0.9 3.5 0.00 0.00 0.00 26 1006.4
20260505234604 89 239 0.9 2.6 0.00 0.00 0.00 25 1006.3
20260505233108 89 263 1.7 4.3 0.00 0.00 0.00 24 1006.4
20260505231605 90 264 2.6 8.7 0.00 0.00 0.00 21 1006.4
20260505230055 91 234 1.7 7.0 0.00 0.00 0.00 23 1006.3
20260505224603 91 262 3.5 10.4 0.00 0.00 0.00 21 1006.4
20260505223057 91 172 3.5 7.0 0.00 0.00 0.00 23 1006.4
20260505221553 91 257 1.7 6.1 0.00 0.00 0.00 22 1006.5
20260505220051 91 271 2.6 8.7 0.00 0.00 0.00 22 1006.5
20260505214554 91 297 2.6 8.7 0.00 0.00 0.00 22 1006.4
20260505213053 92 269 3.5 9.6 0.00 0.00 0.00 22 1006.5
20260505211606 92 350 2.6 7.8 0.00 0.00 0.00 21 1006.7
20260505210054 92 287 1.7 10.4 0.00 0.00 0.00 23 1006.9
20260505204553 92 271 1.7 9.6 0.00 0.00 0.00 24 1007.0
20260505203058 91 273 3.5 7.8 0.00 0.00 0.00 25 1007.1
20260505201559 91 286 3.5 9.6 0.00 0.00 0.00 26 1007.1
20260505200054 90 272 2.6 7.8 0.00 0.00 0.00 28 1007.4
20260505194607 90 288 1.7 7.8 0.00 0.00 0.00 29 1007.5
20260505193052 90 5 2.6 7.8 0.00 0.00 0.00 28 1007.5
20260505191553 89 360 1.7 7.0 0.00 0.00 0.00 31 1007.6
20260505190055 88 284 3.5 11.3 0.00 0.00 0.00 31 1007.9
20260505184554 89 281 2.6 9.6 0.00 0.00 0.00 33 1008.1
20260505183055 88 0 2.6 7.8 0.00 0.00 0.00 35 1008.1
20260505181559 87 239 1.7 8.7 0.00 0.00 0.00 41 1008.3
20260505180054 86 0 0.0 4.3 0.00 0.00 0.00 47 1008.5
20260505174557 85 250 1.7 6.1 0.00 0.00 0.00 49 1008.6
20260505173058 83 268 1.7 6.1 0.00 0.00 0.00 55 1008.7
20260505171555 82 209 1.7 7.8 0.00 0.00 0.00 56 1008.8
20260505170055 81 157 0.9 7.8 0.00 0.00 0.00 64 1008.8
20260505164615 79 321 2.6 7.8 0.00 0.00 0.00 65 1008.8
20260505163102 78 0 0.0 0.0 0.00 0.00 0.00 67 1008.8
20260505161613 77 0 0.0 7.8 0.00 0.00 0.00 68 1008.8
20260505160104 76 253 0.9 8.7 0.00 0.00 0.00 73 1008.9
20260505153054 75 284 3.5 8.7 0.00 0.00 0.00 73 1008.7
20260505151558 75 239 3.5 10.4 0.00 0.00 0.00 74 1008.5
20260505130110 68 242 2.6 7.8 0.00 0.00 0.00 84 1008.0
20260505124600 68 229 0.9 5.2 0.00 0.00 0.00 85 1007.9
20260505123054 68 276 1.7 7.0 0.00 0.00 0.00 84 1007.8
20260505121552 68 227 0.9 6.1 0.00 0.00 0.00 84 1007.5
20260505120107 68 201 1.7 5.2 0.00 0.00 0.00 84 1007.3
20260505114552 68 245 1.7 6.1 0.00 0.00 0.00 83 1007.2